User: anonymous   Login
Location: Waldport
(44.4270°N, 124.0680°W)
Time: 02:21:57
(UTC-08:00)
Language:

Cosmos 1570 Rocket - Orbit

View from above orbital plane
View from above orbital plane
View from above satellite
View from above satellite

Ground track
Ground track

The orbit data is extracted from the following two-line orbital elements,

1 15032U 84056B   15025.56098396  .00000246  00000-0  96204-4 0  5930
2 15032 074.0696 233.0205 0018410 257.0380 166.8255 14.34502488601648
Epoch (UTC): 25 January 2015 13:27:49
Eccentricity: 0.0018410
inclination: 74.0696°
perigee height: 763 km
apogee height: 790 km
right ascension of ascending node: 233.0205°
argument of perigee: 257.0380°
revolutions per day: 14.34502488
mean anomaly at epoch: 166.8255°
orbit number at epoch: 60164

The dashed part of the orbit path shows where the satellite is in the earth's shadow,  

DLR